Weather History for KRWI - June, 2013

Change the Weather History Date:

Friday, June 7, 2013

  Actual Average Record
Temperature  
Mean Temperature 76 °F -  
Max Temperature 82 °F 85 °F 100 °F (2008)
Min Temperature 69 °F 63 °F 50 °F (1976)
Cooling Degree Days 10    
Growing Degree Days 26 (Base 50)    
Moisture  
Dew Point 70 °F    
Average Humidity 91    
Maximum Humidity 100    
Minimum Humidity 74    
Precipitation  
Precipitation 3.60 in - - ()
Sea Level Pressure  
Sea Level Pressure 29.67 in    
Wind  
Wind Speed 5 mph (South)    
Max Wind Speed 24 mph    
Max Gust Speed 33 mph    
Visibility 6 miles    
Events Fog , Rain    
Averages and records for this station are not official NWS values.
T = Trace of Precipitation, MM = Missing Value Source: NWS Daily Summary

Daily Weather History Graph

Daily Weather History Graph

Search for Another Location

Airport or City:

Trip Planner

Search our weather history database for the weather conditions in past years. The results will help you decide how hot, cold, wet, or windy it might be!

Date:

Astronomy

Jun. 07, 2013 Rise Set
Actual Time 5:55 AM EDT 8:26 PM EDT
Civil Twilight 5:25 AM EDT 8:56 PM EDT
Nautical Twilight 4:48 AM EDT 9:33 PM EDT
Astronomical Twilight 4:07 AM EDT 10:14 PM EDT
Moon 5:14 AM EDT (6/7) 7:40 PM EDT (6/7)
Length of Visible Light 15h 30m
Length of Day
14h 31m
Waning Crescent, 1% of the Moon is Illuminated
Jun 7
Waning Crescent
Jun 8
New
Jun 16
First Quarter
Jun 23
Full
Jun 30
Last Quarter

Hourly Weather History & Observations

Time (EDT) Temp. Heat Index Dew Point Humidity Pressure Visibility Wind Dir Wind Speed Gust Speed Precip Events Conditions
12:08 AM 71.6 °F - 69.8 °F 94% 29.88 in 10.0 mi Calm Calm - N/A   Overcast
12:22 AM 71.6 °F - 69.8 °F 94% 29.87 in 9.0 mi Calm Calm - 0.00 in Rain Light Rain
12:31 AM 71.6 °F - 69.8 °F 94% 29.87 in 10.0 mi Calm Calm - 0.01 in Rain Light Rain
12:53 AM 71.1 °F - 69.1 °F 93% 29.87 in 10.0 mi Calm Calm - 0.01 in   Overcast
1:14 AM 71.6 °F - 69.8 °F 94% 29.86 in 9.0 mi Variable 4.6 mph - 0.00 in Rain Light Rain
1:53 AM 71.1 °F - 69.1 °F 93% 29.85 in 6.0 mi Calm Calm - 0.01 in Rain Light Rain
2:15 AM 71.6 °F - 69.8 °F 94% 29.84 in 6.0 mi Calm Calm - 0.03 in Rain Light Rain
2:44 AM 71.6 °F - 69.8 °F 94% 29.82 in 5.0 mi East 3.5 mph - 0.07 in Rain Light Rain
2:53 AM 71.1 °F - 69.1 °F 93% 29.81 in 6.0 mi Calm Calm - 0.08 in Rain Light Rain
3:04 AM 71.6 °F - 69.8 °F 94% 29.81 in 6.0 mi East 3.5 mph - 0.01 in Rain Light Rain
3:29 AM 71.6 °F - 69.8 °F 94% 29.80 in 6.0 mi Calm Calm - 0.05 in Rain Light Rain
3:53 AM 71.1 °F - 69.1 °F 93% 29.78 in 5.0 mi East 3.5 mph - 0.14 in Rain Rain
4:13 AM 69.8 °F - 68.0 °F 94% 29.77 in 2.5 mi ENE 5.8 mph - 0.15 in Rain Heavy Rain
4:18 AM 69.8 °F - 68.0 °F 94% 29.77 in 3.0 mi ENE 10.4 mph 16.1 mph 0.18 in Rain Rain
4:27 AM 69.8 °F - 68.0 °F 94% 29.76 in 4.0 mi ENE 4.6 mph - 0.21 in Rain Rain
4:34 AM 69.8 °F - 68.0 °F 94% 29.76 in 4.0 mi ENE 5.8 mph - 0.23 in Rain Rain
4:50 AM 69.8 °F - 68.0 °F 94% 29.74 in 2.5 mi ENE 6.9 mph - 0.36 in Rain Heavy Rain
4:53 AM 69.1 °F - 68.0 °F 96% 29.73 in 2.5 mi ENE 6.9 mph - 0.39 in Rain Heavy Rain
5:11 AM 69.8 °F - 68.0 °F 94% 29.73 in 3.0 mi SE 4.6 mph - 0.15 in Rain Heavy Rain
5:18 AM 69.8 °F - 68.0 °F 94% 29.72 in 2.5 mi Variable 5.8 mph - 0.22 in Rain Heavy Rain
5:42 AM 69.8 °F - 68.0 °F 94% 29.73 in 3.0 mi Variable 6.9 mph - 0.45 in Rain Rain
5:45 AM 69.8 °F - 68.0 °F 94% 29.73 in 2.5 mi SE 8.1 mph - 0.48 in Rain Heavy Rain
5:53 AM 70.0 °F - 68.0 °F 93% 29.72 in 3.0 mi East 9.2 mph - 0.52 in Rain Rain
6:03 AM 69.8 °F - 68.0 °F 94% 29.71 in 4.0 mi East 5.8 mph - 0.06 in Rain Heavy Rain
6:30 AM 69.8 °F - 69.8 °F 100% 29.69 in 5.0 mi East 4.6 mph - 0.14 in Rain Light Rain
6:38 AM 71.6 °F - 69.8 °F 94% 29.69 in 2.5 mi East 5.8 mph - 0.19 in Rain Heavy Rain
6:53 AM 71.1 °F - 69.1 °F 93% 29.68 in 7.0 mi East 8.1 mph - 0.20 in Rain Light Rain
6:56 AM 71.6 °F - 69.8 °F 94% 29.69 in 10.0 mi Variable 6.9 mph - 0.00 in Rain Light Rain
7:01 AM 71.6 °F - 69.8 °F 94% 29.69 in 10.0 mi SSW 6.9 mph 16.1 mph 0.00 in   Overcast
7:24 AM 71.6 °F - 69.8 °F 94% 29.68 in 4.0 mi East 5.8 mph - 0.03 in Rain Light Rain
7:43 AM 71.6 °F - 69.8 °F 94% 29.67 in 7.0 mi Calm Calm - 0.07 in Rain Light Rain
7:53 AM 73.0 °F - 70.0 °F 90% 29.67 in 5.0 mi South 4.6 mph - 0.07 in Rain Light Rain
8:34 AM 73.4 °F - 71.6 °F 94% 29.67 in 4.0 mi Calm Calm - 0.04 in Rain Light Rain
8:42 AM 73.4 °F - 71.6 °F 94% 29.67 in 1.8 mi Calm Calm - 0.08 in Rain Rain
8:49 AM 73.4 °F - 71.6 °F 94% 29.67 in 1.2 mi Calm Calm - 0.15 in Rain Heavy Rain
8:53 AM 73.0 °F - 72.0 °F 96% 29.67 in 1.0 mi Calm Calm - 0.17 in Rain Rain
9:01 AM 73.4 °F - 71.6 °F 94% 29.67 in 3.0 mi South 4.6 mph - 0.01 in Rain Light Rain
9:03 AM 73.4 °F - 71.6 °F 94% 29.67 in 4.0 mi South 5.8 mph - 0.02 in Rain Light Rain
9:15 AM 73.4 °F - 71.6 °F 94% 29.67 in 2.5 mi South 5.8 mph - 0.04 in Rain Light Rain
9:19 AM 73.4 °F - 71.6 °F 94% 29.66 in 1.8 mi South 6.9 mph - 0.07 in Rain Rain
9:53 AM 73.9 °F - 72.0 °F 93% 29.64 in 1.8 mi South 6.9 mph - 0.41 in Rain Heavy Rain
10:01 AM 73.4 °F - 71.6 °F 94% 29.64 in 3.0 mi South 6.9 mph - 0.01 in Rain Light Rain
10:10 AM 73.4 °F - 71.6 °F 94% 29.64 in 3.0 mi South 4.6 mph - 0.04 in Rain Rain
10:17 AM 73.4 °F - 71.6 °F 94% 29.63 in 2.5 mi SSW 6.9 mph - 0.05 in Rain Light Rain
10:31 AM 73.4 °F - 71.6 °F 94% 29.64 in 1.5 mi SW 11.5 mph - 0.18 in Rain Rain
10:39 AM 73.4 °F - 71.6 °F 94% 29.64 in 0.5 mi SSW 24.2 mph 33.4 mph 0.43 in Fog , Rain Heavy Rain
10:53 AM 73.0 °F - 72.0 °F 96% 29.63 in 0.5 mi SSW 15.0 mph 28.8 mph 0.88 in Fog , Rain Heavy Rain
11:04 AM 73.4 °F - 71.6 °F 94% 29.63 in 1.2 mi SSW 10.4 mph - 0.16 in Rain Heavy Rain
11:19 AM 73.4 °F - 73.4 °F 100% 29.63 in 1.5 mi South 9.2 mph - 0.37 in Rain Heavy Rain
11:31 AM 73.4 °F - 73.4 °F 100% 29.61 in 3.0 mi SSW 9.2 mph - 0.42 in Rain Light Rain
11:38 AM 73.4 °F - 73.4 °F 100% 29.61 in 4.0 mi South 9.2 mph - 0.43 in Rain Light Rain
11:53 AM 73.9 °F - 72.0 °F 93% 29.60 in 1.8 mi Variable 5.8 mph - 0.50 in Rain Heavy Rain
12:01 PM 73.4 °F - 71.6 °F 94% 29.60 in 1.5 mi South 4.6 mph - 0.05 in Rain Heavy Rain
12:11 PM 73.4 °F - 71.6 °F 94% 29.60 in 3.0 mi South 5.8 mph - 0.07 in Rain Light Rain
12:18 PM 75.2 °F - 71.6 °F 89% 29.59 in 8.0 mi Variable 6.9 mph - 0.07 in Rain Light Rain
12:35 PM 77.0 °F - 73.4 °F 89% 29.58 in 10.0 mi South 11.5 mph - 0.07 in   Overcast
12:49 PM 78.8 °F - 73.4 °F 83% 29.57 in 10.0 mi South 9.2 mph - 0.07 in   Overcast
12:53 PM 78.1 °F - 73.0 °F 84% 29.56 in 10.0 mi South 5.8 mph - 0.07 in   Overcast
1:26 PM 80.6 °F 85.4 °F 73.4 °F 79% 29.55 in 10.0 mi South 11.5 mph 20.7 mph N/A   Overcast
1:53 PM 82.0 °F 87.4 °F 73.0 °F 74% 29.52 in 10.0 mi South 11.5 mph 21.9 mph N/A   Mostly Cloudy
2:53 PM 80.1 °F 83.6 °F 71.1 °F 74% 29.49 in 10.0 mi South 11.5 mph 19.6 mph N/A   Overcast
3:53 PM 77.0 °F - 72.0 °F 84% 29.48 in 10.0 mi South 4.6 mph - 0.00 in   Overcast
4:14 PM 75.2 °F - 71.6 °F 89% 29.46 in 7.0 mi ESE 6.9 mph - 0.01 in Rain Light Rain
4:23 PM 75.2 °F - 73.4 °F 94% 29.48 in 7.0 mi South 3.5 mph - 0.02 in Rain Light Rain
4:39 PM 75.2 °F - 73.4 °F 94% 29.49 in 4.0 mi WSW 6.9 mph - 0.03 in Rain Light Rain
4:42 PM 75.2 °F - 73.4 °F 94% 29.50 in 1.5 mi West 10.4 mph - 0.10 in Rain Rain
4:53 PM 75.0 °F - 70.0 °F 84% 29.48 in 3.0 mi NNW 20.7 mph 31.1 mph 0.14 in Rain Light Rain
5:03 PM 75.2 °F - 68.0 °F 78% 29.51 in 10.0 mi WNW 15.0 mph 31.1 mph 0.00 in Rain Light Rain
5:11 PM 75.2 °F - 69.8 °F 83% 29.52 in 10.0 mi West 10.4 mph 23.0 mph 0.00 in   Scattered Clouds
5:19 PM 73.4 °F - 69.8 °F 88% 29.54 in 10.0 mi West 13.8 mph 24.2 mph 0.00 in   Mostly Cloudy
5:53 PM 73.9 °F - 69.1 °F 85% 29.57 in 10.0 mi WSW 11.5 mph - 0.00 in   Overcast
6:00 PM 73.4 °F - 69.8 °F 88% 29.59 in 10.0 mi WSW 10.4 mph - N/A   Overcast
6:35 PM 73.4 °F - 69.8 °F 88% 29.63 in 7.0 mi West 13.8 mph 21.9 mph N/A   Overcast
6:53 PM 72.0 °F - 68.0 °F 87% 29.64 in 10.0 mi WSW 11.5 mph 19.6 mph N/A   Overcast
7:34 PM 71.6 °F - 68.0 °F 88% 29.69 in 10.0 mi West 10.4 mph 18.4 mph N/A   Overcast
7:53 PM 72.0 °F - 66.9 °F 84% 29.70 in 10.0 mi WSW 8.1 mph 19.6 mph N/A   Overcast
8:53 PM 73.0 °F - 66.9 °F 81% 29.75 in 10.0 mi WSW 9.2 mph - N/A   Overcast
9:18 PM 71.6 °F - 66.2 °F 83% 29.77 in 10.0 mi WSW 5.8 mph - N/A   Scattered Clouds
9:53 PM 72.0 °F - 68.0 °F 87% 29.80 in 10.0 mi SW 5.8 mph - N/A   Clear
10:53 PM 72.0 °F - 68.0 °F 87% 29.82 in 10.0 mi South 3.5 mph - N/A   Overcast
11:53 PM 72.0 °F - 68.0 °F 87% 29.83 in 7.0 mi Calm Calm - 0.01 in Rain Light Rain